Weather in Nikol'skoe

Russia / Sakhalin District     48°59′13″N   142°08′07″E
temp.,
°C
wind,
m/s
gust,
m/s
humid.,
%
clouds,
%
prec.,
mm/h
press.,
hPa
HPBL,
m
7 may, fri
fri723:00+2sse23959 0.5 100162
02:00+3wsw248929 0.0 100271
05:00+3se229150 0.0 100337
08:00+5sse248585 0.0 1004123
11:00+10ssw376852 0.0 1003589
14:00+12wsw246399 0.0 1003704
17:00+13w12636 0.1 1002820
20:00+7w118960 0.0 1003164
8 may, sat
sat823:00+5e229493 0.0 100435
02:00+3e2296100 0.0 100358
05:00+3e3395100 0.0 100286
08:00+6e3484100 0.0 1000138
11:00+9e3469100 0.1 1000269
14:00+11ssw1368100 0.4 1000661
17:00+12se2457100 0.4 999883
20:00+7wnw1186100 0.2 100139
9 may, sun
sun923:00+6wsw0094100 0.6 100334
02:00+5sw1196100 0.3 100434
05:00+4w119875 0.3 100332
08:00+6nw109391 0.0 1004184
11:00+10w227383 0.0 1003758
14:00+12wnw2264100 0.0 1002686
17:00+11sw2266100 0.0 1002637
20:00+7w1181100 0.0 100371
10 may, mon
mon1023:00+4ese1192100 0.0 100324
02:00+4ene1289100 0.0 100283
05:00+5ne1388100 0.0 1002196
08:00+5nne1786100 0.1 1001705
11:00+6nne31185100 0.4 10011103
14:00+6ne41181100 0.1 10021003
17:00+5ne3983100 0.2 1004872
20:00+4ene2990100 0.1 1007831
11 may, tue
tue1123:00+4ne2893100 0.1 1009794
02:00+3ne1297100 0.1 1011185
05:000ene118893 0.0 101410
08:00+4ne119694 0.0 1014181
11:00+6ene118492 0.0 1014566
14:00+8wnw2268100 0.1 10151041
17:00+6wnw127899 0.1 1015387
20:00+6w128246 0.0 1016137